Lid_Strength_Index
13 13 12 12 13 14 14 12 15 13 14 11 10 10 9 9 9 9 9 9 9 9 9 9 9 9 8 9 9 9 9 10 10 10 11 11 11 11 11 10 10 10 10 10
15 13 13 14 12 13 13 13 13 13 13 10 9 9 10 10 10 9 9 9 10 9 9 9 9 9 9 10 10 10 10 11 11 12 12 12 12 12 12 12 12 12 11 11
15 13 13 15 14 13 12 11 11 14 11 10 9 9 9 8 8 8 9 10 10 9 9 10 10 10 10 10 11 11 11 12 13 13 13 13 13 13 13 13 13 13 12 12
16 14 18 13 10 10 11 11 10 10 10 9 9 8 7 7 8 9 9 10 9 10 10 10 11 11 11 11 12 12 12 13 13 13 13 13 14 14 13 13 13 13 13 12
17 17 13 12 13 12 12 12 10 10 9 9 9 9 10 9 8 9 9 9 10 10 10 11 11 12 12 12 12 13 13 13 13 14 14 14 15 14 14 14 13 13 13 12
15 18 19 12 12 9 9 13 9 9 10 11 10 12 10 11 11 10 10 10 11 11 11 11 12 12 12 13 13 13 14 14 14 14 15 15 14 14 13 14 14 13 13 12
16 17 15 12 13 11 15 13 11 9 10 11 11 10 11 11 12 11 11 11 11 11 12 12 13 13 13 14 14 14 15 15 15 14 15 14 14 14 14 14 13 13 13 12
15 17 18 13 13 12 11 13 12 11 11 11 13 12 12 12 12 12 12 11 11 11 12 13 14 14 15 15 15 16 16 16 15 15 14 14 15 13 13 14 14 13 12 12
13 13 14 13 13 12 12 12 12 11 11 12 13 13 13 13 13 13 12 12 12 13 14 15 16 16 17 16 16 16 17 17 16 15 14 13 13 12 13 13 13 12 12 12
13 13 14 13 12 12 11 11 12 11 11 12 13 13 13 13 13 13 14 14 15 16 16 17 17 17 17 17 16 18 18 17 16 16 14 13 12 12 12 12 13 13 12 12
16 17 15 13 13 12 12 12 12 12 12 13 13 13 14 14 14 14 15 16 17 17 17 17 17 17 17 18 18 19 18 17 16 15 14 14 13 13 13 12 12 13 13 12
13 13 12 12 12 12 12 12 12 13 14 14 13 14 14 14 15 15 17 18 18 19 19 19 19 20 19 20 19 20 19 17 17 17 16 16 15 15 13 12 11 10 10 9
13 12 12 11 10 11 12 13 13 13 13 14 15 15 15 16 17 18 19 19 21 21 22 22 22 22 21 21 21 21 21 20 19 19 18 17 17 16 17 14 11 10 9 8
12 12 13 12 12 12 12 12 14 15 15 15 17 17 18 18 20 20 21 22 23 23 24 24 24 24 22 21 21 22 22 22 21 20 19 19 18 17 16 16 15 13 10 9
13 14 12 11 12 13 13 14 15 15 16 17 18 19 19 20 21 22 23 25 26 27 27 27 27 25 23 23 24 23 23 22 21 20 20 19 18 18 17 16 15 13 11 9
13 14 14 11 12 13 14 15 14 15 16 18 20 21 21 22 24 25 27 27 26 24 27 28 27 25 25 25 25 23 22 22 22 21 20 19 18 18 16 15 14 12 10 9
14 14 15 14 13 14 13 13 12 14 17 19 20 23 25 26 27 28 29 29 29 29 28 28 27 26 26 26 24 22 22 22 22 21 20 19 19 18 16 15 14 12 10 8
9 9 10 11 12 13 17 16 16 17 18 20 24 26 27 28 23 27 29 30 31 30 28 26 26 26 25 24 24 22 22 22 21 21 20 19 18 17 16 15 14 11 9 9
12 10 10 11 12 12 14 17 19 21 24 25 27 26 27 28 29 29 31 31 30 28 24 25 23 23 23 23 21 20 20 21 20 20 19 19 18 16 15 14 13 10 9 11
14 19 17 19 21 17 20 23 25 27 29 29 30 30 29 30 31 31 32 28 26 24 25 25 24 23 23 22 21 20 20 20 20 20 19 19 17 16 15 14 12 11 12 14
14 19 21 22 26 27 26 26 27 29 32 31 29 28 28 30 32 32 29 24 24 26 25 24 24 22 21 21 21 20 20 20 21 20 20 19 18 17 15 14 14 14 15 16
26 26 28 28 28 31 30 29 29 31 32 32 34 33 32 29 31 31 30 25 24 26 24 23 23 23 21 23 21 21 21 21 21 20 20 21 20 18 17 16 16 17 17 18
27 27 28 29 28 30 33 31 31 30 31 31 31 31 29 25 25 25 24 26 26 25 24 24 25 22 22 22 22 22 22 22 22 21 21 21 21 20 19 19 18 18 19 19
30 29 30 31 31 30 30 32 32 31 32 31 31 32 28 27 27 28 25 27 28 26 25 24 23 21 24 23 23 23 23 22 22 22 22 22 22 21 21 20 20 20 20 20
29 32 31 30 28 27 29 31 32 33 32 30 31 31 31 28 27 25 26 26 26 25 24 25 23 23 24 24 24 24 23 23 23 23 23 23 23 23 22 22 21 21 21 21
29 28 27 26 25 27 28 29 26 28 29 28 28 28 28 28 27 27 26 27 26 26 25 24 24 24 24 24 24 23 23 23 23 23 24 24 24 24 23 23 23 23 22 22
29 30 29 29 28 28 28 27 27 28 29 27 27 28 28 28 27 27 27 26 26 25 25 24 24 24 24 24 23 23 23 23 23 23 23 24 24 24 24 24 24 23 23 23